Location: Newark
(39.0622°N, 106.5590°E)
Time: 19:48:57
(UTC+00:00)

UWE-3 - Pass Details

Date: 27 February 2020
Orbit: 585 x 683 km, 97.6° (Epoch: 09 April)

Event Time Altitude Azimuth Distance (km) Brightness Sun altitude
Rises 21:59:59 0° 17° (NNE) 3,051 ? -18.1°
Reaches altitude 10° 22:02:18 10° 22° (NNE) 2,134 ? -17.6°
Maximum altitude 22:06:52 52° 99° (E) 846 ? -16.8°
Drops below altitude 10° 22:11:23 10° 176° (S) 2,105 ? -15.9°
Sets 22:13:38 0° 181° (S) 3,006 ? -15.4°
